Year,Month,Day,Hour,Minute,Value (Times are PST for temperature in C)
2007,10,22,00,00,10.40
2007,10,22,00,01,10.40
2007,10,22,00,02,10.40
2007,10,22,00,03,10.40
2007,10,22,00,04,10.40
2007,10,22,00,05,10.40
2007,10,22,00,06,10.40
2007,10,22,00,07,10.60
2007,10,22,00,08,10.60
2007,10,22,00,09,10.60
2007,10,22,00,10,10.60
2007,10,22,00,11,10.60
2007,10,22,00,12,10.60
2007,10,22,00,13,10.60
2007,10,22,00,14,10.60
2007,10,22,00,15,10.60
2007,10,22,00,16,10.60
2007,10,22,00,17,10.60
2007,10,22,00,18,10.60
2007,10,22,00,19,10.60
2007,10,22,00,20,10.70
2007,10,22,00,21,10.70
2007,10,22,00,22,10.70
2007,10,22,00,23,10.60
2007,10,22,00,24,10.60
2007,10,22,00,25,10.60
2007,10,22,00,26,10.60
2007,10,22,00,27,10.60
2007,10,22,00,28,10.60
2007,10,22,00,29,10.60
2007,10,22,00,30,10.60
2007,10,22,00,31,10.40
2007,10,22,00,32,10.40
2007,10,22,00,33,10.40
2007,10,22,00,34,10.40
2007,10,22,00,35,10.40
2007,10,22,00,36,10.40
2007,10,22,00,37,10.40
2007,10,22,00,38,10.40
2007,10,22,00,39,10.40
2007,10,22,00,40,10.30
2007,10,22,00,41,10.30
2007,10,22,00,42,10.30
2007,10,22,00,43,10.30
2007,10,22,00,44,10.30
2007,10,22,00,45,10.30
2007,10,22,00,46,10.30
2007,10,22,00,47,10.30
2007,10,22,00,48,10.30
2007,10,22,00,49,10.30
2007,10,22,00,50,10.30
2007,10,22,00,51,10.20
2007,10,22,00,52,10.20
2007,10,22,00,53,10.20
2007,10,22,00,54,10.30
2007,10,22,00,55,10.30
2007,10,22,00,56,10.30
2007,10,22,00,57,10.30
2007,10,22,00,58,10.30
2007,10,22,00,59,10.20
2007,10,22,01,00,10.20
2007,10,22,01,01,10.30
2007,10,22,01,02,10.30
2007,10,22,01,03,10.20
2007,10,22,01,04,10.30
2007,10,22,01,05,10.30
2007,10,22,01,06,10.30
2007,10,22,01,07,10.20
2007,10,22,01,08,10.20
2007,10,22,01,09,10.20
2007,10,22,01,10,10.20
2007,10,22,01,11,10.20
2007,10,22,01,12,10.20
2007,10,22,01,13,10.20
2007,10,22,01,14,10.20
2007,10,22,01,15,10.20
2007,10,22,01,16,10.20
2007,10,22,01,17,10.20
2007,10,22,01,18,10.20
2007,10,22,01,19,10.20
2007,10,22,01,20,10.20
2007,10,22,01,21,10.20
2007,10,22,01,23,10.10
2007,10,22,01,24,10.20
2007,10,22,01,25,10.10
2007,10,22,01,26,10.20
2007,10,22,01,27,10.10
2007,10,22,01,28,10.10
2007,10,22,01,29,10.10
2007,10,22,01,30,10.10
2007,10,22,01,31,10.10
2007,10,22,01,32,10.10
2007,10,22,01,33,10.10
2007,10,22,01,34,10.20
2007,10,22,01,35,10.20
2007,10,22,01,36,10.20
2007,10,22,01,37,10.20
2007,10,22,01,38,10.30
2007,10,22,01,39,10.30
2007,10,22,01,40,10.30
2007,10,22,01,41,10.30
2007,10,22,01,42,10.40
2007,10,22,01,43,10.40
2007,10,22,01,44,10.40
2007,10,22,01,45,10.40
2007,10,22,01,46,10.60
2007,10,22,01,47,10.60
2007,10,22,01,48,10.60
2007,10,22,01,49,10.60
2007,10,22,01,50,10.60
2007,10,22,01,51,10.60
2007,10,22,01,52,10.60
2007,10,22,01,53,10.70
2007,10,22,01,54,10.70
2007,10,22,01,55,10.70
2007,10,22,01,56,10.80
2007,10,22,01,57,10.80
2007,10,22,01,58,10.90
2007,10,22,01,59,10.90
2007,10,22,02,00,10.90
2007,10,22,02,01,10.90
2007,10,22,02,02,10.90
2007,10,22,02,03,10.90
2007,10,22,02,04,10.90
2007,10,22,02,05,10.90
2007,10,22,02,06,10.90
2007,10,22,02,07,10.90
2007,10,22,02,08,10.90
2007,10,22,02,09,11.10
2007,10,22,02,10,11.10
2007,10,22,02,11,11.10
2007,10,22,02,12,11.10
2007,10,22,02,13,11.10
2007,10,22,02,14,10.90
2007,10,22,02,15,10.90
2007,10,22,02,16,10.90
2007,10,22,02,17,10.90
2007,10,22,02,18,10.90
2007,10,22,02,19,10.80
2007,10,22,02,20,10.80
2007,10,22,02,21,10.70
2007,10,22,02,22,10.70
2007,10,22,02,23,10.70
2007,10,22,02,24,10.70
2007,10,22,02,25,10.60
2007,10,22,02,26,10.60
2007,10,22,02,27,10.60
2007,10,22,02,28,10.60
2007,10,22,02,29,10.60
2007,10,22,02,30,10.60
2007,10,22,02,31,10.60
2007,10,22,02,32,10.60
2007,10,22,02,33,10.60
2007,10,22,02,34,10.60
2007,10,22,02,35,10.60
2007,10,22,02,36,10.60
2007,10,22,02,37,10.60
2007,10,22,02,38,10.60
2007,10,22,02,39,10.60
2007,10,22,02,40,10.60
2007,10,22,02,41,10.60
2007,10,22,02,42,10.60
2007,10,22,02,43,10.60
2007,10,22,02,44,10.60
2007,10,22,02,45,10.60
2007,10,22,02,46,10.70
2007,10,22,02,47,10.70
2007,10,22,02,48,10.70
2007,10,22,02,49,10.80
2007,10,22,02,50,10.90
2007,10,22,02,51,10.90
2007,10,22,02,52,10.90
2007,10,22,02,53,11.10
2007,10,22,02,54,11.10
2007,10,22,02,55,11.10
2007,10,22,02,56,11.20
2007,10,22,02,57,11.20
2007,10,22,02,58,11.30
2007,10,22,02,59,11.40
2007,10,22,03,00,11.40
2007,10,22,03,01,11.40
2007,10,22,03,02,11.40
2007,10,22,03,03,11.40
2007,10,22,03,04,11.40
2007,10,22,03,05,11.60
2007,10,22,03,06,11.60
2007,10,22,03,07,11.60
2007,10,22,03,10,11.70
2007,10,22,03,11,11.70
2007,10,22,03,12,11.70
2007,10,22,03,13,11.80
2007,10,22,03,14,11.80
2007,10,22,03,15,11.80
2007,10,22,03,16,11.80
2007,10,22,03,17,11.80
2007,10,22,03,18,11.80
2007,10,22,03,19,11.80
2007,10,22,03,20,11.80
2007,10,22,03,21,11.80
2007,10,22,03,22,11.90
2007,10,22,03,23,11.90
2007,10,22,03,24,11.90
2007,10,22,03,25,11.90
2007,10,22,03,26,11.90
2007,10,22,03,27,11.90
2007,10,22,03,28,11.90
2007,10,22,03,29,11.90
2007,10,22,03,30,11.90
2007,10,22,03,31,11.90
2007,10,22,03,32,12.00
2007,10,22,03,33,12.00
2007,10,22,03,34,12.00
2007,10,22,03,35,12.00
2007,10,22,03,36,12.00
2007,10,22,03,37,12.00
2007,10,22,03,38,12.00
2007,10,22,03,39,12.00
2007,10,22,03,40,12.10
2007,10,22,03,41,12.00
2007,10,22,03,42,12.10
2007,10,22,03,43,12.00
2007,10,22,03,44,12.00
2007,10,22,03,45,12.00
2007,10,22,03,46,12.00
2007,10,22,03,47,12.10
2007,10,22,03,48,12.10
2007,10,22,03,49,12.10
2007,10,22,03,50,12.10
2007,10,22,03,51,12.10
2007,10,22,03,52,12.10
2007,10,22,03,53,12.10
2007,10,22,03,54,12.10
2007,10,22,03,55,12.10
2007,10,22,03,56,12.10
2007,10,22,03,57,12.10
2007,10,22,03,58,12.10
2007,10,22,03,59,12.10
2007,10,22,04,00,12.10
2007,10,22,04,01,12.10
2007,10,22,04,02,12.10
2007,10,22,04,03,12.10
2007,10,22,04,04,12.10
2007,10,22,04,05,12.10
2007,10,22,04,06,12.10
2007,10,22,04,07,12.10
2007,10,22,04,08,12.10
2007,10,22,04,09,12.10
2007,10,22,04,10,12.10
2007,10,22,04,11,12.20
2007,10,22,04,12,12.20
2007,10,22,04,13,12.20
2007,10,22,04,14,12.20
2007,10,22,04,15,12.20
2007,10,22,04,16,12.20
2007,10,22,04,17,12.20
2007,10,22,04,18,12.30
2007,10,22,04,19,12.30
2007,10,22,04,20,12.30
2007,10,22,04,21,12.30
2007,10,22,04,22,12.30
2007,10,22,04,23,12.30
2007,10,22,04,24,12.30
2007,10,22,04,25,12.30
2007,10,22,04,26,12.30
2007,10,22,04,27,12.30
2007,10,22,04,28,12.30
2007,10,22,04,29,12.30
2007,10,22,04,30,12.30
2007,10,22,04,31,12.20
2007,10,22,04,32,12.20
2007,10,22,04,33,12.20
2007,10,22,04,34,12.10
2007,10,22,04,35,12.00
2007,10,22,04,36,12.00
2007,10,22,04,37,11.90
2007,10,22,04,38,11.80
2007,10,22,04,39,11.80
2007,10,22,04,40,11.80
2007,10,22,04,41,11.80
2007,10,22,04,42,11.80
2007,10,22,04,43,11.80
2007,10,22,04,44,11.80
2007,10,22,04,45,11.80
2007,10,22,04,46,11.80
2007,10,22,04,47,11.80
2007,10,22,04,48,11.80
2007,10,22,04,49,11.80
2007,10,22,04,50,11.80
2007,10,22,04,51,11.80
2007,10,22,04,52,11.80
2007,10,22,04,53,11.80
2007,10,22,04,54,11.90
2007,10,22,04,55,11.90
2007,10,22,04,56,11.90
2007,10,22,04,57,11.90
2007,10,22,04,58,11.90
2007,10,22,05,00,11.90
2007,10,22,05,01,12.00
2007,10,22,05,02,12.00
2007,10,22,05,03,12.00
2007,10,22,05,04,12.00
2007,10,22,05,05,12.10
2007,10,22,05,06,12.10
2007,10,22,05,07,12.10
2007,10,22,05,08,12.20
2007,10,22,05,09,12.20
2007,10,22,05,10,12.20
2007,10,22,05,11,12.20
2007,10,22,05,12,12.20
2007,10,22,05,13,12.20
2007,10,22,05,14,12.30
2007,10,22,05,15,12.30
2007,10,22,05,16,12.30
2007,10,22,05,17,12.30
2007,10,22,05,18,12.30
2007,10,22,05,19,12.30
2007,10,22,05,20,12.30
2007,10,22,05,21,12.30
2007,10,22,05,22,12.30
2007,10,22,05,23,12.30
2007,10,22,05,24,12.30
2007,10,22,05,25,12.30
2007,10,22,05,26,12.30
2007,10,22,05,27,12.30
2007,10,22,05,28,12.40
2007,10,22,05,29,12.40
2007,10,22,05,30,12.40
2007,10,22,05,31,12.40
2007,10,22,05,32,12.40
2007,10,22,05,33,12.40
2007,10,22,05,34,12.50
2007,10,22,05,35,12.50
2007,10,22,05,36,12.50
2007,10,22,05,37,12.50
2007,10,22,05,38,12.60
2007,10,22,05,39,12.60
2007,10,22,05,40,12.60
2007,10,22,05,41,12.60
2007,10,22,05,42,12.60
2007,10,22,05,43,12.70
2007,10,22,05,44,12.70
2007,10,22,05,45,12.70
2007,10,22,05,46,12.70
2007,10,22,05,47,12.70
2007,10,22,05,48,12.70
2007,10,22,05,49,12.60
2007,10,22,05,50,12.60
2007,10,22,05,51,12.60
2007,10,22,05,52,12.60
2007,10,22,05,53,12.60
2007,10,22,05,54,12.60
2007,10,22,05,55,12.60
2007,10,22,05,56,12.60
2007,10,22,05,57,12.60
2007,10,22,05,58,12.60
2007,10,22,05,59,12.60
2007,10,22,06,00,12.60
2007,10,22,06,01,12.60
2007,10,22,06,02,12.60
2007,10,22,06,03,12.60
2007,10,22,06,04,12.60
2007,10,22,06,05,12.60
2007,10,22,06,06,12.60
2007,10,22,06,07,12.60
2007,10,22,06,08,12.60
2007,10,22,06,09,12.60
2007,10,22,06,10,12.60
2007,10,22,06,11,12.60
2007,10,22,06,12,12.60
2007,10,22,06,13,12.60
2007,10,22,06,14,12.60
2007,10,22,06,15,12.60
2007,10,22,06,16,12.60
2007,10,22,06,17,12.60
2007,10,22,06,18,12.60
2007,10,22,06,19,12.60
2007,10,22,06,20,12.60
2007,10,22,06,21,12.60
2007,10,22,06,22,12.60
2007,10,22,06,23,12.60
2007,10,22,06,24,12.60
2007,10,22,06,25,12.60
2007,10,22,06,26,12.60
2007,10,22,06,27,12.60
2007,10,22,06,28,12.60
2007,10,22,06,29,12.60
2007,10,22,06,30,12.70
2007,10,22,06,31,12.70
2007,10,22,06,32,12.70
2007,10,22,06,33,12.70
2007,10,22,06,34,12.80
2007,10,22,06,35,12.80
2007,10,22,06,36,12.80
2007,10,22,06,37,12.80
2007,10,22,06,38,12.80
2007,10,22,06,39,12.80
2007,10,22,06,40,12.80
2007,10,22,06,41,12.80
2007,10,22,06,42,12.80
2007,10,22,06,43,12.80
2007,10,22,06,44,12.80
2007,10,22,06,45,12.80
2007,10,22,06,46,12.80
2007,10,22,06,47,12.80
2007,10,22,06,48,12.80
2007,10,22,06,49,12.80
2007,10,22,06,50,12.80
2007,10,22,06,51,12.80
2007,10,22,06,52,12.80
2007,10,22,06,53,12.80
2007,10,22,06,54,12.80
2007,10,22,06,55,12.80
2007,10,22,06,56,12.80
2007,10,22,06,57,12.80
2007,10,22,06,58,12.80
2007,10,22,06,59,12.80
2007,10,22,07,00,12.80
2007,10,22,07,01,12.80
2007,10,22,07,02,12.80
2007,10,22,07,03,12.80
2007,10,22,07,04,12.80
2007,10,22,07,05,12.80
2007,10,22,07,06,12.80
2007,10,22,07,39,12.80
2007,10,22,07,40,12.80
2007,10,22,07,41,12.80
2007,10,22,07,42,12.80
2007,10,22,07,43,12.80
2007,10,22,07,44,12.80
2007,10,22,07,45,12.80
2007,10,22,07,46,12.80
2007,10,22,07,47,12.80
2007,10,22,07,48,12.80
2007,10,22,07,49,12.80
2007,10,22,07,50,12.80
2007,10,22,07,51,12.80
2007,10,22,07,52,12.80
2007,10,22,07,53,12.80
2007,10,22,07,54,12.90
2007,10,22,07,55,12.90
2007,10,22,07,56,12.90
2007,10,22,07,57,12.90
2007,10,22,07,58,12.90
2007,10,22,07,59,12.90
2007,10,22,08,00,12.90
2007,10,22,08,01,12.90
2007,10,22,08,02,12.90
2007,10,22,08,03,12.90
2007,10,22,08,04,12.90
2007,10,22,08,05,12.90
2007,10,22,08,06,13.00
2007,10,22,08,07,13.00
2007,10,22,08,08,12.90
2007,10,22,08,09,13.00
2007,10,22,08,10,13.00
2007,10,22,08,11,13.00
2007,10,22,08,12,13.00
2007,10,22,08,13,13.00
2007,10,22,08,14,13.00
2007,10,22,08,15,13.00
2007,10,22,08,16,12.90
2007,10,22,08,17,13.00
2007,10,22,08,18,13.00
2007,10,22,08,19,13.00
2007,10,22,08,20,13.00
2007,10,22,08,21,13.00
2007,10,22,08,22,13.00
2007,10,22,08,23,13.00
2007,10,22,08,24,13.00
2007,10,22,08,25,13.00
2007,10,22,08,26,13.00
2007,10,22,08,27,13.00
2007,10,22,08,28,13.00
2007,10,22,08,29,13.00
2007,10,22,08,30,13.00
2007,10,22,08,31,13.00
2007,10,22,08,32,13.00
2007,10,22,08,33,13.00
2007,10,22,08,34,13.00
2007,10,22,08,35,13.00
2007,10,22,08,36,13.00
2007,10,22,08,37,13.00
2007,10,22,08,38,13.00
2007,10,22,08,39,13.00
2007,10,22,08,40,13.00
2007,10,22,08,41,13.00
2007,10,22,08,43,13.10
2007,10,22,08,44,13.10
2007,10,22,08,46,13.10
2007,10,22,08,47,13.10
2007,10,22,08,48,13.10
2007,10,22,08,49,13.10
2007,10,22,08,50,13.10
2007,10,22,08,51,13.10
2007,10,22,08,53,13.10
2007,10,22,08,54,13.10
2007,10,22,08,55,13.20
2007,10,22,08,56,13.20
2007,10,22,08,57,13.20
2007,10,22,08,58,13.20
2007,10,22,08,59,13.20
2007,10,22,09,00,13.20
2007,10,22,09,01,13.20
2007,10,22,09,02,13.20
2007,10,22,09,03,13.20
2007,10,22,09,04,13.20
2007,10,22,09,05,13.20
2007,10,22,09,06,13.20
2007,10,22,09,07,13.20
2007,10,22,09,08,13.20
2007,10,22,09,09,13.20
2007,10,22,09,10,13.20
2007,10,22,09,11,13.30
2007,10,22,09,12,13.20
2007,10,22,09,13,13.30
2007,10,22,09,14,13.30
2007,10,22,09,15,13.30
2007,10,22,09,16,13.30
2007,10,22,09,17,13.30
2007,10,22,09,18,13.30
2007,10,22,09,19,13.30
2007,10,22,09,20,13.30
2007,10,22,09,21,13.30
2007,10,22,09,22,13.30
2007,10,22,09,23,13.30
2007,10,22,09,24,13.30
2007,10,22,09,25,13.30
2007,10,22,09,26,13.30
2007,10,22,09,27,13.40
2007,10,22,09,28,13.40
2007,10,22,09,29,13.40
2007,10,22,09,30,13.40
2007,10,22,09,31,13.40
2007,10,22,09,32,13.50
2007,10,22,09,33,13.50
2007,10,22,09,34,13.50
2007,10,22,09,35,13.60
2007,10,22,09,36,13.60
2007,10,22,09,37,13.60
2007,10,22,09,38,13.60
2007,10,22,09,39,13.70
2007,10,22,09,40,13.70
2007,10,22,09,41,13.70
2007,10,22,09,42,13.70
2007,10,22,09,43,13.70
2007,10,22,09,44,13.70
2007,10,22,09,45,13.70
2007,10,22,09,46,13.60
2007,10,22,09,47,13.60
2007,10,22,09,48,13.60
2007,10,22,09,49,13.60
2007,10,22,09,50,13.60
2007,10,22,09,51,13.60
2007,10,22,09,52,13.60
2007,10,22,09,53,13.50
2007,10,22,09,54,13.50
2007,10,22,09,55,13.50
2007,10,22,09,56,13.50
2007,10,22,09,57,13.50
2007,10,22,09,58,13.50
2007,10,22,09,59,13.50
2007,10,22,10,00,13.50
2007,10,22,10,01,13.60
2007,10,22,10,02,13.60
2007,10,22,10,03,13.60
2007,10,22,10,04,13.60
2007,10,22,10,05,13.60
2007,10,22,10,06,13.70
2007,10,22,10,07,13.70
2007,10,22,10,08,13.70
2007,10,22,10,09,13.70
2007,10,22,10,10,13.80
2007,10,22,10,11,13.80
2007,10,22,10,12,13.90
2007,10,22,10,13,13.90
2007,10,22,10,14,13.90
2007,10,22,10,15,14.00
2007,10,22,10,16,14.00
2007,10,22,10,17,14.00
2007,10,22,10,18,14.10
2007,10,22,10,19,14.10
2007,10,22,10,20,14.20
2007,10,22,10,21,14.20
2007,10,22,10,22,14.20
2007,10,22,10,23,14.20
2007,10,22,10,24,14.30
2007,10,22,10,25,14.30
2007,10,22,10,26,14.40
2007,10,22,10,27,14.40
2007,10,22,10,28,14.40
2007,10,22,10,29,14.40
2007,10,22,10,30,14.40
2007,10,22,10,31,14.40
2007,10,22,10,32,14.40
2007,10,22,10,33,14.40
2007,10,22,10,34,14.50
2007,10,22,10,35,14.50
2007,10,22,10,36,14.50
2007,10,22,10,37,14.50
2007,10,22,10,38,14.50
2007,10,22,10,39,14.50
2007,10,22,10,40,14.50
2007,10,22,10,41,14.50
2007,10,22,10,42,14.50
2007,10,22,10,43,14.50
2007,10,22,10,44,14.50
2007,10,22,10,45,14.50
2007,10,22,10,46,14.40
2007,10,22,10,47,14.40
2007,10,22,10,48,14.40
2007,10,22,10,49,14.40
2007,10,22,10,50,14.40
2007,10,22,10,51,14.30
2007,10,22,10,52,14.30
2007,10,22,10,53,14.30
2007,10,22,10,54,14.30
2007,10,22,10,55,14.30
2007,10,22,10,56,14.30
2007,10,22,10,57,14.40
2007,10,22,10,58,14.40
2007,10,22,10,59,14.40
2007,10,22,11,00,14.50
2007,10,22,11,01,14.50
2007,10,22,11,02,14.60
2007,10,22,11,03,14.60
2007,10,22,11,04,14.60
2007,10,22,11,05,14.70
2007,10,22,11,06,14.70
2007,10,22,11,07,14.60
2007,10,22,11,08,14.60
2007,10,22,11,09,14.60
2007,10,22,11,10,14.60
2007,10,22,11,11,14.50
2007,10,22,11,12,14.50
2007,10,22,11,13,14.50
2007,10,22,11,14,14.50
2007,10,22,11,15,14.50
2007,10,22,11,16,14.50
2007,10,22,11,17,14.50
2007,10,22,11,18,14.60
2007,10,22,11,19,14.60
2007,10,22,11,20,14.70
2007,10,22,11,21,14.70
2007,10,22,11,22,14.80
2007,10,22,11,23,14.80
2007,10,22,11,24,14.80
2007,10,22,11,25,14.80
2007,10,22,11,26,14.80
2007,10,22,11,27,14.80
2007,10,22,11,28,14.80
2007,10,22,11,29,14.80
2007,10,22,11,30,14.80
2007,10,22,11,31,14.80
2007,10,22,11,32,14.80
2007,10,22,11,33,14.80
2007,10,22,11,34,14.70
2007,10,22,11,35,14.70
2007,10,22,11,36,14.70
2007,10,22,11,37,14.60
2007,10,22,11,38,14.60
2007,10,22,11,39,14.60
2007,10,22,11,40,14.50
2007,10,22,11,41,14.50
2007,10,22,11,42,14.40
2007,10,22,11,43,14.40
2007,10,22,11,44,14.40
2007,10,22,11,45,14.40
2007,10,22,11,46,14.30
2007,10,22,11,47,14.30
2007,10,22,11,48,14.30
2007,10,22,11,49,14.20
2007,10,22,11,50,14.20
2007,10,22,11,51,14.20
2007,10,22,11,52,14.20
2007,10,22,11,53,14.20
2007,10,22,11,54,14.20
2007,10,22,11,55,14.20
2007,10,22,11,56,14.20
2007,10,22,11,57,14.20
2007,10,22,11,58,14.20
2007,10,22,11,59,14.20
2007,10,22,12,00,14.20
2007,10,22,12,01,14.30
2007,10,22,12,02,14.30
2007,10,22,12,03,14.40
2007,10,22,12,04,14.40
2007,10,22,12,05,14.40
2007,10,22,12,06,14.50
2007,10,22,12,07,14.50
2007,10,22,12,08,14.60
2007,10,22,12,09,14.60
2007,10,22,12,10,14.70
2007,10,22,12,11,14.80
2007,10,22,12,12,14.80
2007,10,22,12,13,14.80
2007,10,22,12,14,14.90
2007,10,22,12,15,14.90
2007,10,22,12,16,14.90
2007,10,22,12,17,15.00
2007,10,22,12,18,15.00
2007,10,22,12,19,15.00
2007,10,22,12,20,15.00
2007,10,22,12,21,15.10
2007,10,22,12,22,15.10
2007,10,22,12,23,15.10
2007,10,22,12,24,15.20
2007,10,22,12,25,15.20
2007,10,22,12,26,15.30
2007,10,22,12,27,15.30
2007,10,22,12,28,15.30
2007,10,22,12,29,15.30
2007,10,22,12,30,15.40
2007,10,22,12,31,15.40
2007,10,22,12,32,15.50
2007,10,22,12,33,15.50
2007,10,22,12,34,15.60
2007,10,22,12,35,15.70
2007,10,22,12,36,15.80
2007,10,22,12,37,15.80
2007,10,22,12,38,15.80
2007,10,22,12,39,15.80
2007,10,22,12,40,15.80
2007,10,22,12,41,15.80
2007,10,22,12,42,15.90
2007,10,22,12,43,15.90
2007,10,22,12,44,15.90
2007,10,22,12,45,16.10
2007,10,22,12,46,15.90
2007,10,22,12,47,15.90
2007,10,22,12,48,15.90
2007,10,22,12,49,15.90
2007,10,22,12,50,15.90
2007,10,22,12,51,15.90
2007,10,22,12,52,15.90
2007,10,22,12,53,15.90
2007,10,22,12,54,15.90
2007,10,22,12,55,16.10
2007,10,22,12,56,16.10
2007,10,22,12,57,16.10
2007,10,22,12,58,16.10
2007,10,22,12,59,16.10
2007,10,22,13,00,16.20
2007,10,22,13,01,16.20
2007,10,22,13,02,16.20
2007,10,22,13,03,16.10
2007,10,22,13,04,16.10
2007,10,22,13,05,16.10
2007,10,22,13,06,16.10
2007,10,22,13,07,16.10
2007,10,22,13,08,16.10
2007,10,22,13,09,16.10
2007,10,22,13,10,16.10
2007,10,22,13,11,16.20
2007,10,22,13,12,16.20
2007,10,22,13,13,16.20
2007,10,22,13,14,16.20
2007,10,22,13,15,16.20
2007,10,22,13,16,16.20
2007,10,22,13,17,16.20
2007,10,22,13,18,16.20
2007,10,22,13,19,16.20
2007,10,22,13,20,16.10
2007,10,22,13,21,16.10
2007,10,22,13,22,16.10
2007,10,22,13,23,16.10
2007,10,22,13,24,16.10
2007,10,22,13,25,16.10
2007,10,22,13,26,15.90
2007,10,22,13,27,15.90
2007,10,22,13,28,15.90
2007,10,22,13,29,15.90
2007,10,22,13,30,15.90
2007,10,22,13,31,15.90
2007,10,22,13,32,16.10
2007,10,22,13,33,16.10
2007,10,22,13,34,16.10
2007,10,22,13,35,15.90
2007,10,22,13,36,15.90
2007,10,22,13,37,15.90
2007,10,22,13,38,15.90
2007,10,22,13,39,15.80
2007,10,22,13,40,15.80
2007,10,22,13,41,15.80
2007,10,22,13,42,15.80
2007,10,22,13,43,15.80
2007,10,22,13,44,15.80
2007,10,22,13,45,15.80
2007,10,22,13,46,15.80
2007,10,22,13,47,15.80
2007,10,22,13,48,15.80
2007,10,22,13,49,15.80
2007,10,22,13,50,15.80
2007,10,22,13,51,15.80
2007,10,22,13,52,15.80
2007,10,22,13,53,15.80
2007,10,22,13,54,15.90
2007,10,22,13,55,15.90
2007,10,22,13,56,16.10
2007,10,22,13,57,16.10
2007,10,22,13,58,16.10
2007,10,22,13,59,16.20
2007,10,22,14,00,16.30
2007,10,22,14,01,16.40
2007,10,22,14,02,16.40
2007,10,22,14,03,16.40
2007,10,22,14,04,16.40
2007,10,22,14,05,16.40
2007,10,22,14,06,16.40
2007,10,22,14,07,16.30
2007,10,22,14,08,16.30
2007,10,22,14,09,16.30
2007,10,22,14,10,16.30
2007,10,22,14,11,16.30
2007,10,22,14,12,16.20
2007,10,22,14,13,16.20
2007,10,22,14,14,16.10
2007,10,22,14,15,16.10
2007,10,22,14,16,16.10
2007,10,22,14,17,16.10
2007,10,22,14,18,16.10
2007,10,22,14,19,16.10
2007,10,22,14,20,15.90
2007,10,22,14,21,15.90
2007,10,22,14,22,15.90
2007,10,22,14,23,15.80
2007,10,22,14,24,15.80
2007,10,22,14,25,15.80
2007,10,22,14,26,15.80
2007,10,22,14,27,15.80
2007,10,22,14,28,15.80
2007,10,22,14,29,15.90
2007,10,22,14,30,15.90
2007,10,22,14,31,15.90
2007,10,22,14,32,15.90
2007,10,22,14,33,16.10
2007,10,22,14,34,16.10
2007,10,22,14,35,16.10
2007,10,22,14,36,16.10
2007,10,22,14,37,16.10
2007,10,22,14,38,16.10
2007,10,22,14,39,16.10
2007,10,22,14,40,16.10
2007,10,22,14,41,16.10
2007,10,22,14,42,16.10
2007,10,22,14,43,16.20
2007,10,22,14,44,16.20
2007,10,22,14,45,16.10
2007,10,22,14,46,16.10
2007,10,22,14,47,16.10
2007,10,22,14,48,16.10
2007,10,22,14,49,16.10
2007,10,22,14,50,16.10
2007,10,22,14,51,15.90
2007,10,22,14,52,15.80
2007,10,22,14,53,15.80
2007,10,22,14,54,15.80
2007,10,22,14,55,15.80
2007,10,22,14,56,15.80
2007,10,22,14,57,15.70
2007,10,22,14,58,15.60
2007,10,22,14,59,15.60
2007,10,22,15,00,15.60
2007,10,22,15,01,15.60
2007,10,22,15,02,15.60
2007,10,22,15,03,15.70
2007,10,22,15,04,15.70
2007,10,22,15,05,15.80
2007,10,22,15,06,15.80
2007,10,22,15,07,15.80
2007,10,22,15,08,15.80
2007,10,22,15,09,15.80
2007,10,22,15,10,15.80
2007,10,22,15,11,15.80
2007,10,22,15,12,15.80
2007,10,22,15,13,15.70
2007,10,22,15,14,15.70
2007,10,22,15,15,15.60
2007,10,22,15,16,15.50
2007,10,22,15,17,15.50
2007,10,22,15,18,15.50
2007,10,22,15,19,15.40
2007,10,22,15,20,15.40
2007,10,22,15,21,15.40
2007,10,22,15,22,15.30
2007,10,22,15,23,15.30
2007,10,22,15,24,15.30
2007,10,22,15,25,15.30
2007,10,22,15,26,15.40
2007,10,22,15,27,15.40
2007,10,22,15,28,15.40
2007,10,22,15,29,15.40
2007,10,22,15,30,15.40
2007,10,22,15,31,15.40
2007,10,22,15,32,15.40
2007,10,22,15,33,15.40
2007,10,22,15,34,15.30
2007,10,22,15,35,15.30
2007,10,22,15,36,15.30
2007,10,22,15,37,15.30
2007,10,22,15,38,15.30
2007,10,22,15,39,15.20
2007,10,22,15,40,15.20
2007,10,22,15,41,15.10
2007,10,22,15,42,15.10
2007,10,22,15,43,15.10
2007,10,22,15,44,15.10
2007,10,22,15,45,15.00
2007,10,22,15,46,15.00
2007,10,22,15,47,15.00
2007,10,22,15,48,15.00
2007,10,22,15,49,15.00
2007,10,22,15,50,14.90
2007,10,22,15,51,14.90
2007,10,22,15,52,14.90
2007,10,22,15,53,14.90
2007,10,22,15,54,14.80
2007,10,22,15,55,14.80
2007,10,22,15,56,14.80
2007,10,22,15,57,14.80
2007,10,22,15,58,14.80
2007,10,22,15,59,14.80
2007,10,22,16,00,14.80
2007,10,22,16,01,14.80
2007,10,22,16,02,14.80
2007,10,22,16,03,14.80
2007,10,22,16,04,14.80
2007,10,22,16,05,14.80
2007,10,22,16,06,14.80
2007,10,22,16,07,14.80
2007,10,22,16,08,14.80
2007,10,22,16,09,14.80
2007,10,22,16,10,14.80
2007,10,22,16,11,14.80
2007,10,22,16,12,14.80
2007,10,22,16,13,14.80
2007,10,22,16,14,14.80
2007,10,22,16,15,14.80
2007,10,22,16,16,14.80
2007,10,22,16,17,14.80
2007,10,22,16,18,14.70
2007,10,22,16,19,14.70
2007,10,22,16,20,14.70
2007,10,22,16,21,14.70
2007,10,22,16,22,14.70
2007,10,22,16,23,14.70
2007,10,22,16,24,14.70
2007,10,22,16,25,14.70
2007,10,22,16,26,14.70
2007,10,22,16,27,14.70
2007,10,22,16,28,14.70
2007,10,22,16,29,14.70
2007,10,22,16,30,14.70
2007,10,22,16,31,14.70
2007,10,22,16,32,14.70
2007,10,22,16,33,14.70
2007,10,22,16,34,14.70
2007,10,22,16,35,14.70
2007,10,22,16,36,14.70
2007,10,22,16,37,14.60
2007,10,22,16,38,14.60
2007,10,22,16,39,14.60
2007,10,22,16,40,14.60
2007,10,22,16,41,14.60
2007,10,22,16,42,14.60
2007,10,22,16,43,14.60
2007,10,22,16,44,14.60
2007,10,22,16,45,14.60
2007,10,22,16,46,14.60
2007,10,22,16,47,14.60
2007,10,22,16,48,14.50
2007,10,22,16,49,14.50
2007,10,22,16,50,14.50
2007,10,22,16,51,14.50
2007,10,22,16,52,14.50
2007,10,22,16,53,14.50
2007,10,22,16,54,14.50
2007,10,22,16,55,14.50
2007,10,22,16,56,14.50
2007,10,22,16,57,14.50
2007,10,22,16,58,14.50
2007,10,22,16,59,14.50
2007,10,22,17,00,14.50
2007,10,22,17,01,14.50
2007,10,22,17,02,14.50
2007,10,22,17,03,14.50
2007,10,22,17,04,14.40
2007,10,22,17,05,14.40
2007,10,22,17,06,14.40
2007,10,22,17,07,14.40
2007,10,22,17,08,14.40
2007,10,22,17,09,14.40
2007,10,22,17,10,14.40
2007,10,22,17,11,14.40
2007,10,22,17,12,14.40
2007,10,22,17,13,14.40
2007,10,22,17,14,14.30
2007,10,22,17,15,14.30
2007,10,22,17,16,14.30
2007,10,22,17,17,14.30
2007,10,22,17,18,14.30
2007,10,22,17,19,14.30
2007,10,22,17,20,14.20
2007,10,22,17,21,14.20
2007,10,22,17,22,14.20
2007,10,22,17,23,14.20
2007,10,22,17,24,14.20
2007,10,22,17,25,14.20
2007,10,22,17,26,14.20
2007,10,22,17,27,14.20
2007,10,22,17,28,14.20
2007,10,22,17,29,14.20
2007,10,22,17,30,14.20
2007,10,22,17,31,14.10
2007,10,22,17,32,14.10
2007,10,22,17,33,14.10
2007,10,22,17,34,14.10
2007,10,22,17,35,14.10
2007,10,22,17,36,14.10
2007,10,22,17,37,14.10
2007,10,22,17,38,14.10
2007,10,22,17,39,14.10
2007,10,22,17,40,14.10
2007,10,22,17,41,14.10
2007,10,22,17,42,14.10
2007,10,22,17,43,14.10
2007,10,22,17,44,14.10
2007,10,22,17,45,14.10
2007,10,22,17,46,14.10
2007,10,22,17,47,14.10
2007,10,22,17,48,14.10
2007,10,22,17,49,14.10
2007,10,22,17,50,14.00
2007,10,22,17,51,14.00
2007,10,22,17,52,14.00
2007,10,22,17,53,14.00
2007,10,22,17,54,14.00
2007,10,22,17,55,14.00
2007,10,22,17,56,14.00
2007,10,22,17,57,14.00
2007,10,22,17,58,14.00